Time,TemperatureF,DewpointF,PressureIn,WindDirection,WindDirectionDegrees,WindSpeedMPH,WindSpeedGustMPH,Humidity,HourlyPrecipIn,Conditions,Clouds,dailyrainin,SoftwareType,DateUTC
2013-06-30 00:02:00,75.0,70.0,29.69,South,180,6.0,-999.0,83,-99.99,,,-99.99,,2013-06-30 04:02:00,
2013-06-30 00:43:00,75.0,70.0,29.69,SSW,200,5.0,-999.0,83,-99.99,,,-99.99,,2013-06-30 04:43:00,
2013-06-30 01:02:00,75.0,70.0,29.70,North,0,0.0,-999.0,83,-99.99,,,-99.99,,2013-06-30 05:02:00,
2013-06-30 01:34:00,73.0,70.0,29.71,NNE,20,3.0,-999.0,88,-99.99,,,-99.99,,2013-06-30 05:34:00,
2013-06-30 01:43:00,73.0,70.0,29.71,North,0,0.0,-999.0,88,-99.99,,,-99.99,,2013-06-30 05:43:00,
2013-06-30 02:02:00,72.0,70.0,29.72,North,0,0.0,-999.0,94,-99.99,,,-99.99,,2013-06-30 06:02:00,
2013-06-30 02:34:00,72.0,70.0,29.72,SE,140,3.0,-999.0,94,-99.99,,,-99.99,,2013-06-30 06:34:00,
2013-06-30 02:43:00,72.0,70.0,29.72,North,0,0.0,-999.0,94,-99.99,,,-99.99,,2013-06-30 06:43:00,
2013-06-30 02:53:00,72.0,70.0,29.72,North,0,0.0,-999.0,94,-99.99,,,-99.99,,2013-06-30 06:53:00,
2013-06-30 03:44:00,70.0,68.0,29.73,North,0,0.0,-999.0,94,-99.99,,,-99.99,,2013-06-30 07:44:00,
2013-06-30 03:53:00,70.0,68.0,29.73,North,0,0.0,-999.0,94,-99.99,,,-99.99,,2013-06-30 07:53:00,
2013-06-30 04:02:00,70.0,68.0,29.73,North,0,0.0,-999.0,94,-99.99,,,-99.99,,2013-06-30 08:02:00,
2013-06-30 04:33:00,70.0,68.0,29.74,North,0,0.0,-999.0,94,-99.99,,,-99.99,,2013-06-30 08:33:00,
2013-06-30 04:42:00,70.0,66.0,29.74,North,0,0.0,-999.0,88,-99.99,,,-99.99,,2013-06-30 08:42:00,
2013-06-30 04:53:00,68.0,66.0,29.74,North,0,0.0,-999.0,93,-99.99,,,-99.99,,2013-06-30 08:53:00,
2013-06-30 05:02:00,70.0,66.0,29.74,North,0,0.0,-999.0,88,-99.99,,,-99.99,,2013-06-30 09:02:00,
2013-06-30 05:23:00,68.0,66.0,29.75,North,0,0.0,-999.0,93,-99.99,,,-99.99,,2013-06-30 09:23:00,
2013-06-30 05:34:00,68.0,66.0,29.76,North,0,0.0,-999.0,93,-99.99,,,-99.99,,2013-06-30 09:34:00,
2013-06-30 05:43:00,68.0,66.0,29.76,North,0,0.0,-999.0,93,-99.99,,,-99.99,,2013-06-30 09:43:00,
2013-06-30 06:02:00,68.0,66.0,29.77,North,0,0.0,-999.0,93,-99.99,,,-99.99,,2013-06-30 10:02:00,
2013-06-30 06:22:00,70.0,66.0,29.77,North,0,0.0,-999.0,88,-99.99,,,-99.99,,2013-06-30 10:22:00,
2013-06-30 06:33:00,70.0,66.0,29.77,North,0,0.0,-999.0,88,-99.99,,,-99.99,,2013-06-30 10:33:00,
2013-06-30 06:42:00,70.0,68.0,29.78,North,0,0.0,-999.0,94,-99.99,,,-99.99,,2013-06-30 10:42:00,
2013-06-30 07:02:00,72.0,70.0,29.78,North,0,0.0,-999.0,94,-99.99,,,-99.99,,2013-06-30 11:02:00,
2013-06-30 08:43:00,77.0,70.0,29.82,North,0,0.0,-999.0,78,-99.99,,,-99.99,,2013-06-30 12:43:00,
2013-06-30 09:43:00,81.0,72.0,29.82,North,0,0.0,-999.0,74,-99.99,,,-99.99,,2013-06-30 13:43:00,
2013-06-30 10:44:00,84.0,72.0,29.81,North,0,0.0,-999.0,65,-99.99,,,-99.99,,2013-06-30 14:44:00,
2013-06-30 11:44:00,88.0,72.0,29.82,South,190,9.0,-999.0,58,-99.99,,,-99.99,,2013-06-30 15:44:00,
2013-06-30 12:01:00,88.0,72.0,29.82,SSW,210,8.0,-999.0,58,-99.99,,,-99.99,,2013-06-30 16:01:00,
2013-06-30 12:44:00,88.0,73.0,29.81,SSW,210,7.0,-999.0,62,-99.99,,,-99.99,,2013-06-30 16:44:00,
2013-06-30 12:53:00,90.0,73.0,29.81,SSW,210,9.0,-999.0,59,-99.99,,,-99.99,,2013-06-30 16:53:00,
2013-06-30 13:02:00,90.0,73.0,29.81,South,190,8.0,-999.0,59,-99.99,,,-99.99,,2013-06-30 17:02:00,
2013-06-30 13:43:00,91.0,73.0,29.80,SSW,200,12.0,-999.0,55,-99.99,,,-99.99,,2013-06-30 17:43:00,
2013-06-30 14:02:00,90.0,73.0,29.79,South,190,12.0,-999.0,59,-99.99,,,-99.99,,2013-06-30 18:02:00,
2013-06-30 14:34:00,90.0,72.0,29.80,SSW,210,13.0,-999.0,55,-99.99,,,-99.99,,2013-06-30 18:34:00,
2013-06-30 14:43:00,90.0,73.0,29.80,South,180,13.0,-999.0,59,-99.99,,,-99.99,,2013-06-30 18:43:00,
2013-06-30 14:53:00,88.0,73.0,29.80,South,180,10.0,17.0,62,-99.99,,,-99.99,,2013-06-30 18:53:00,
2013-06-30 15:01:00,86.0,73.0,29.80,South,180,12.0,-999.0,66,-99.99,,,-99.99,,2013-06-30 19:01:00,
2013-06-30 15:33:00,82.0,75.0,29.80,WSW,240,7.0,16.0,78,-99.99,,,-99.99,,2013-06-30 19:33:00,
2013-06-30 15:43:00,81.0,73.0,29.81,West,260,6.0,16.0,78,-99.99,,,-99.99,,2013-06-30 19:43:00,
2013-06-30 15:53:00,79.0,73.0,29.82,North,0,0.0,-999.0,83,-99.99,,,-99.99,,2013-06-30 19:53:00,
2013-06-30 16:02:00,79.0,73.0,29.84,North,0,0.0,-999.0,83,-99.99,,,-99.99,,2013-06-30 20:02:00,
2013-06-30 16:12:00,79.0,73.0,29.84,North,10,3.0,-999.0,83,-99.99,,,-99.99,,2013-06-30 20:12:00,
2013-06-30 16:22:00,79.0,72.0,29.84,North,10,3.0,-999.0,78,-99.99,,,-99.99,,2013-06-30 20:22:00,
2013-06-30 16:34:00,79.0,72.0,29.83,North,0,0.0,-999.0,78,-99.99,,,-99.99,,2013-06-30 20:34:00,
2013-06-30 16:42:00,79.0,73.0,29.83,South,190,3.0,-999.0,83,-99.99,,,-99.99,,2013-06-30 20:42:00,
2013-06-30 16:52:00,79.0,73.0,29.85,SW,230,5.0,-999.0,83,-99.99,,,-99.99,,2013-06-30 20:52:00,
2013-06-30 17:01:00,79.0,73.0,29.85,South,180,14.0,18.0,83,-99.99,,,-99.99,,2013-06-30 21:01:00,
2013-06-30 17:43:00,73.0,70.0,29.88,North,0,0.0,-999.0,88,-99.99,,,-99.99,,2013-06-30 21:43:00,
2013-06-30 18:43:00,73.0,72.0,29.88,South,170,5.0,-999.0,94,-99.99,,,-99.99,,2013-06-30 22:43:00,
2013-06-30 19:02:00,73.0,72.0,29.88,WSW,250,3.0,-999.0,94,-99.99,,,-99.99,,2013-06-30 23:02:00,
2013-06-30 19:44:00,73.0,72.0,29.88,SW,230,3.0,-999.0,94,-99.99,,,-99.99,,2013-06-30 23:44:00,
2013-06-30 19:53:00,73.0,72.0,29.88,North,0,0.0,-999.0,94,-99.99,,,-99.99,,2013-06-30 23:53:00,
2013-06-30 20:01:00,73.0,72.0,29.88,North,0,0.0,-999.0,94,-99.99,,,-99.99,,2013-07-01 00:01:00,
2013-06-30 20:42:00,73.0,72.0,29.88,North,0,0.0,-999.0,94,-99.99,,,-99.99,,2013-07-01 00:42:00,
2013-06-30 21:01:00,73.0,72.0,29.89,North,0,0.0,-999.0,94,-99.99,,,-99.99,,2013-07-01 01:01:00,
2013-06-30 21:11:00,73.0,72.0,29.89,North,0,0.0,-999.0,94,-99.99,,,-99.99,,2013-07-01 01:11:00,
2013-06-30 21:33:00,73.0,72.0,29.90,North,0,0.0,-999.0,94,-99.99,,,-99.99,,2013-07-01 01:33:00,
2013-06-30 21:42:00,73.0,72.0,29.91,North,0,0.0,-999.0,94,-99.99,,,-99.99,,2013-07-01 01:42:00,
2013-06-30 21:52:00,73.0,72.0,29.91,North,0,0.0,-999.0,94,-99.99,,,-99.99,,2013-07-01 01:52:00,
2013-06-30 22:02:00,73.0,72.0,29.92,North,0,0.0,-999.0,94,-99.99,,,-99.99,,2013-07-01 02:02:00,
2013-06-30 22:12:00,73.0,72.0,29.92,SSE,150,3.0,-999.0,94,-99.99,,,-99.99,,2013-07-01 02:12:00,
2013-06-30 22:22:00,73.0,72.0,29.92,SE,140,5.0,-999.0,94,-99.99,,,-99.99,,2013-07-01 02:22:00,
2013-06-30 22:33:00,73.0,72.0,29.92,North,0,0.0,-999.0,94,-99.99,,,-99.99,,2013-07-01 02:33:00,
2013-06-30 22:44:00,72.0,72.0,29.92,North,0,0.0,-999.0,100,-99.99,,,-99.99,,2013-07-01 02:44:00,
2013-06-30 22:53:00,72.0,72.0,29.92,SSE,160,5.0,-999.0,100,-99.99,,,-99.99,,2013-07-01 02:53:00,
2013-06-30 23:01:00,72.0,72.0,29.92,North,0,0.0,-999.0,100,-99.99,,,-99.99,,2013-07-01 03:01:00,
2013-06-30 23:33:00,72.0,72.0,29.93,North,0,0.0,-999.0,100,-99.99,,,-99.99,,2013-07-01 03:33:00,
2013-06-30 23:43:00,72.0,70.0,29.93,North,0,0.0,-999.0,94,-99.99,,,-99.99,,2013-07-01 03:43:00,
2013-06-30 23:52:00,72.0,70.0,29.93,North,0,0.0,-999.0,94,-99.99,,,-99.99,,2013-07-01 03:52:00,